Eagle Creek, IN

8:27 PM EDT on May 20, 2018 (GMT -0400)
Eagle Creek

Weather History for KEYE - February, 2013

Change the Weather History Date:

Wednesday, February 13, 2013

  Actual Average Record
Temperature  
Mean Temperature 36 °F 31 °F  
Max Temperature 44 °F 39 °F 51 °F (2011)
Min Temperature 27 °F 23 °F 4 °F (2014)
Degree Days  
Heating Degree Days 29 34  
Month to date heating degree days 445 455  
Since 1 July heating degree days 3604 3656  
Cooling Degree Days 0 0  
Month to date cooling degree days 0 0  
Year to date cooling degree days 0 0  
Moisture  
Dew Point 25 °F    
Average Humidity 67    
Maximum Humidity 92    
Minimum Humidity 41    
Precipitation  
Precipitation 0.00 in 0.07 in 0.78 in (2007)
Month to date precipitation 0.28 0.91  
Year to date precipitation 4.95 3.12  
Sea Level Pressure  
Sea Level Pressure 29.86 in    
Wind  
Wind Speed 4 mph (West)    
Max Wind Speed 12 mph    
Max Gust Speed 16 mph    
Visibility 9 miles    
Events      
T = Trace of Precipitation, MM = Missing Value Source: NWS Daily Summary

Daily Weather History Graph

Daily Weather History Graph

Search for Another Location

Airport or City:

Astronomy

Feb. 13, 2013 Rise Set
Actual Time 7:39 AM EST 6:19 PM EST
Civil Twilight 7:12 AM EST 6:47 PM EST
Nautical Twilight 6:40 AM EST 7:18 PM EST
Astronomical Twilight 6:09 AM EST 7:50 PM EST
Moon 9:09 AM EST (2/13) 10:21 PM EST (2/13)
Length of Visible Light 11h 34m
Length of Day
10h 39m
Waxing Crescent, 13% of the Moon is Illuminated
Feb 13
Waxing Crescent
Feb 17
First Quarter
Feb 25
Full
Mar 4
Last Quarter
Mar 11
New

Hourly Weather History & Observations

Time (EST) Temp. Windchill Dew Point Humidity Pressure Visibility Wind Dir Wind Speed Gust Speed Precip Events Conditions
12:53 AM 28.0 °F 24.2 °F 26.1 °F 92% 29.94 in 7.0 mi North 3.5 mph - N/A   Overcast
1:53 AM 28.0 °F - 25.0 °F 88% 29.93 in 7.0 mi Calm Calm - N/A   Overcast
2:53 AM 28.0 °F - 25.0 °F 88% 29.93 in 7.0 mi Calm Calm - N/A   Overcast
3:53 AM 28.0 °F 22.8 °F 25.0 °F 88% 29.91 in 7.0 mi North 4.6 mph - N/A   Overcast
4:53 AM 28.0 °F - 25.0 °F 88% 29.88 in 8.0 mi Calm Calm - N/A   Overcast
5:53 AM 28.0 °F 22.8 °F 24.1 °F 85% 29.86 in 9.0 mi NNE 4.6 mph - N/A   Overcast
6:53 AM 28.0 °F 21.7 °F 24.1 °F 85% 29.84 in 9.0 mi NNE 5.8 mph - N/A   Mostly Cloudy
7:53 AM 28.0 °F 22.8 °F 24.1 °F 85% 29.86 in 8.0 mi North 4.6 mph - N/A   Mostly Cloudy
8:53 AM 28.0 °F - 24.1 °F 85% 29.88 in 8.0 mi Calm Calm - N/A   Clear
9:53 AM 28.9 °F 25.2 °F 24.1 °F 82% 29.87 in 8.0 mi North 3.5 mph - N/A   Clear
10:53 AM 30.0 °F - 25.0 °F 82% 29.87 in 8.0 mi Calm Calm - N/A   Clear
11:53 AM 32.0 °F - 25.0 °F 75% 29.87 in 9.0 mi Calm Calm - N/A   Clear
12:53 PM 34.0 °F 29.8 °F 25.0 °F 70% 29.85 in 10.0 mi WNW 4.6 mph - N/A   Clear
1:53 PM 37.9 °F 35.5 °F 25.0 °F 60% 29.82 in 10.0 mi Variable 3.5 mph - N/A   Clear
2:53 PM 41.0 °F - 23.0 °F 49% 29.79 in 10.0 mi Calm Calm - N/A   Clear
3:53 PM 44.1 °F 39.0 °F 25.0 °F 47% 29.78 in 10.0 mi SW 9.2 mph - N/A   Clear
4:53 PM 44.1 °F 40.1 °F 23.0 °F 43% 29.79 in 10.0 mi West 6.9 mph - N/A   Clear
5:53 PM 43.0 °F 40.3 °F 24.1 °F 47% 29.81 in 10.0 mi WSW 4.6 mph - N/A   Clear
6:53 PM 39.9 °F 36.7 °F 25.0 °F 55% 29.83 in 10.0 mi SSW 4.6 mph - N/A   Clear
7:53 PM 37.9 °F 33.5 °F 26.1 °F 62% 29.84 in 10.0 mi SW 5.8 mph - N/A   Clear
8:53 PM 37.0 °F 32.4 °F 26.1 °F 65% 29.85 in 10.0 mi SSW 5.8 mph - N/A   Clear
9:53 PM 36.0 °F 31.1 °F 26.1 °F 67% 29.86 in 10.0 mi SSW 5.8 mph - N/A   Clear
10:53 PM 35.1 °F 30.1 °F 28.0 °F 76% 29.85 in 10.0 mi SSW 5.8 mph - N/A   Clear
11:53 PM 35.1 °F 28.6 °F 28.9 °F 78% 29.86 in 10.0 mi SSW 8.1 mph - N/A   Clear